This is the latest recevied weather packets stored in our database for station/object VA3JLF-1. If no packets are shown the sender has not sent any weather packets the latest 10 day(s).
| Time | Temp. | Humidity | Pressure | Rain* | Wind** | Luminosity | Snow |
|---|---|---|---|---|---|---|---|
| 1777752957 | 7.22° C | 79% | 1010.1 hPa | 0 mm | - | - | - |
| 1777752359 | 7.78° C | 79% | 1010.2 hPa | 0 mm | - | - | - |
| 1777751759 | 7.78° C | 81% | 1010.1 hPa | 0 mm | - | - | - |
| 1777751402 | 6.11° C | 85% | 1010.3 hPa | 0 mm | - | - | - |
| 1777751159 | 6.67° C | 84% | 1010.5 hPa | 0 mm | - | - | - |
| 1777750559 | 6.11° C | 85% | 1010.3 hPa | 0 mm | - | - | - |
| 1777749959 | 6.11° C | 85% | 1010.5 hPa | 0 mm | - | - | - |
| 1777749359 | 6.67° C | 82% | 1010.5 hPa | 0 mm | - | - | - |
| 1777748759 | 7.22° C | 84% | 1010.6 hPa | 0 mm | - | - | - |
| 1777748158 | 7.22° C | 82% | 1010.6 hPa | 0 mm | - | - | - |
| 1777747559 | 7.22° C | 81% | 1010.7 hPa | 0 mm | - | - | - |
| 1777746958 | 7.22° C | 83% | 1010.5 hPa | 0 mm | - | - | - |
| 1777746359 | 6.67° C | 81% | 1010.6 hPa | 0 mm | - | - | - |
| 1777745759 | 6.67° C | 82% | 1010.5 hPa | 0 mm | - | - | - |
| 1777745159 | 6.67° C | 82% | 1010.5 hPa | 0 mm | - | - | - |
| 1777744559 | 7.22° C | 82% | 1010.6 hPa | 0 mm | - | - | - |
| 1777743959 | 7.78° C | 81% | 1010.5 hPa | 0 mm | - | - | - |
| 1777743359 | 6.67° C | 83% | 1010.5 hPa | 0 mm | - | - | - |
| 1777742759 | 6.67° C | 81% | 1010.4 hPa | 0 mm | - | - | - |
| 1777742159 | 6.67° C | 82% | 1010.3 hPa | 0 mm | - | - | - |
| 1777741559 | 7.22° C | 81% | 1010.3 hPa | 0 mm | - | - | - |
| 1777740958 | 7.22° C | 79% | 1010.4 hPa | 0 mm | - | - | - |
| 1777740358 | 7.22° C | 81% | 1010.5 hPa | 0 mm | - | - | - |
| 1777739758 | 6.11° C | 80% | 1010.3 hPa | 0 mm | - | - | - |
| 1777739157 | 6.11° C | 82% | 1010.5 hPa | 0 mm | - | - | - |
* Rain latest hour (hover to see other rain measurements)
** Current wind speed in m/s (hover to see current wind gust speed)